CCA8978 ZGGG-ZWWW

Flight info

Callsign CCA8978
Flight time 4h 37m
Altitude 34100
Route AGVIL W24 OSNOV G586 QP B330 ELKAL W179 OMBON Y1 DUMIN W192 AKLAS G470 IRPEP B215 DUMAM
Aircraft B77W/H-SDE1E2E3FGHIJ2J3J4J5M1RWXY/LB1D1

Departure

Time 2026-04-27 04:35
Airport Guangzhou Baiyun International Airport (ZGGG)

Arrival

Time 2026-04-27 09:12
Airport Ürümqi Tianshan International Airport (ZWWW)
Time Latitude Longitude Altitude Speed Heading
2026-04-27 03:55 23.40065 113.30694 61 ft 0 kts 334°
2026-04-27 04:24 23.40060 113.30697 61 ft 3 kts 334°
2026-04-27 04:24 23.40046 113.30705 61 ft 2 kts 334°
2026-04-27 04:25 23.40032 113.30711 61 ft 2 kts 334°
2026-04-27 04:25 23.40019 113.30719 61 ft 2 kts 334°
2026-04-27 04:25 23.40010 113.30724 61 ft 2 kts 333°
2026-04-27 04:25 23.39998 113.30733 61 ft 2 kts 305°
2026-04-27 04:26 23.39992 113.30747 61 ft 2 kts 278°
2026-04-27 04:26 23.39992 113.30763 61 ft 2 kts 253°
2026-04-27 04:26 23.39998 113.30777 61 ft 2 kts 229°
2026-04-27 04:26 23.40010 113.30788 61 ft 2 kts 203°
2026-04-27 04:27 23.40017 113.30790 61 ft 1 kts 192°
2026-04-27 04:27 23.40019 113.30791 61 ft 0 kts 193°
2026-04-27 04:28 23.40007 113.30788 61 ft 5 kts 194°
2026-04-27 04:29 23.39929 113.30765 61 ft 18 kts 194°
2026-04-27 04:29 23.39824 113.30738 61 ft 10 kts 194°
2026-04-27 04:29 23.39764 113.30755 61 ft 9 kts 130°
2026-04-27 04:29 23.39738 113.30813 61 ft 8 kts 107°
2026-04-27 04:30 23.39717 113.30866 61 ft 7 kts 133°
2026-04-27 04:30 23.39674 113.30885 61 ft 6 kts 175°
2026-04-27 04:30 23.39631 113.30883 61 ft 6 kts 187°
2026-04-27 04:30 23.39579 113.30872 61 ft 8 kts 192°
2026-04-27 04:31 23.39492 113.30849 61 ft 18 kts 193°
2026-04-27 04:31 23.39336 113.30808 61 ft 27 kts 194°
2026-04-27 04:31 23.39140 113.30754 61 ft 28 kts 194°
2026-04-27 04:31 23.38959 113.30706 61 ft 25 kts 194°
2026-04-27 04:32 23.38778 113.30656 61 ft 28 kts 194°
2026-04-27 04:32 23.38590 113.30606 61 ft 26 kts 194°
2026-04-27 04:32 23.38406 113.30557 61 ft 26 kts 194°
2026-04-27 04:32 23.38230 113.30508 61 ft 26 kts 194°
2026-04-27 04:33 23.38039 113.30457 61 ft 28 kts 193°
2026-04-27 04:33 23.37883 113.30415 61 ft 11 kts 194°
2026-04-27 04:33 23.37816 113.30432 61 ft 9 kts 131°
2026-04-27 04:33 23.37792 113.30498 61 ft 9 kts 105°
2026-04-27 04:34 23.37791 113.30565 61 ft 9 kts 61°
2026-04-27 04:34 23.37844 113.30604 61 ft 9 kts 19°
2026-04-27 04:34 23.38084 113.30670 61 ft 77 kts 14°
2026-04-27 04:34 23.38907 113.30893 61 ft 161 kts 14°
2026-04-27 04:35 23.40169 113.31239 439 ft 203 kts 15°
2026-04-27 04:35 23.41519 113.31602 1578 ft 202 kts 17°
2026-04-27 04:35 23.42912 113.32024 2132 ft 218 kts 18°
2026-04-27 04:35 23.44455 113.32493 2612 ft 238 kts 17°
2026-04-27 04:36 23.46123 113.32991 3149 ft 257 kts 17°
2026-04-27 04:36 23.47895 113.33518 3744 ft 274 kts 16°
2026-04-27 04:36 23.49750 113.34069 4610 ft 279 kts 16°
2026-04-27 04:36 23.51632 113.34629 5494 ft 283 kts 15°
2026-04-27 04:37 23.53527 113.35194 6324 ft 289 kts 15°
2026-04-27 04:37 23.55469 113.35761 7190 ft 292 kts 13°
2026-04-27 04:37 23.57478 113.36193 8017 ft 296 kts
2026-04-27 04:37 23.59504 113.36574 8795 ft 301 kts
2026-04-27 04:38 23.61589 113.36965 9611 ft 305 kts
2026-04-27 04:38 23.63697 113.37365 10335 ft 313 kts
2026-04-27 04:38 23.65902 113.37785 10850 ft 329 kts
2026-04-27 04:38 23.68191 113.38221 11308 ft 346 kts
2026-04-27 04:39 23.70661 113.38637 11769 ft 362 kts
2026-04-27 04:39 23.73196 113.38660 12245 ft 376 kts 353°
2026-04-27 04:39 23.75818 113.38190 12691 ft 389 kts 343°
2026-04-27 04:39 23.78413 113.37182 13107 ft 402 kts 332°
2026-04-27 04:40 23.80881 113.35599 13636 ft 410 kts 321°
2026-04-27 04:40 23.83016 113.33545 14390 ft 411 kts 310°
2026-04-27 04:40 23.84745 113.31126 15224 ft 409 kts 300°
2026-04-27 04:40 23.86051 113.28393 16041 ft 407 kts 289°
2026-04-27 04:41 23.86888 113.25446 16746 ft 409 kts 279°
2026-04-27 04:41 23.87248 113.22365 17439 ft 411 kts 272°
2026-04-27 04:41 23.87447 113.19248 18206 ft 413 kts 272°
2026-04-27 04:41 23.87663 113.16121 18909 ft 416 kts 273°
2026-04-27 04:42 23.87901 113.12955 19522 ft 421 kts 274°
2026-04-27 04:42 23.88155 113.09776 20178 ft 425 kts 274°
2026-04-27 04:42 23.88463 113.06553 20785 ft 429 kts 277°
2026-04-27 04:42 23.89156 113.03378 21419 ft 434 kts 286°
2026-04-27 04:43 23.90289 113.00354 22010 ft 439 kts 295°
2026-04-27 04:43 23.91883 112.97489 22595 ft 445 kts 303°
2026-04-27 04:43 23.93910 112.94894 23157 ft 451 kts 313°
2026-04-27 04:43 23.96315 112.92671 23677 ft 458 kts 322°
2026-04-27 04:44 23.99071 112.90876 24172 ft 465 kts 331°
2026-04-27 04:44 24.02078 112.89597 24677 ft 472 kts 340°
2026-04-27 04:44 24.05289 112.88589 25221 ft 476 kts 341°
2026-04-27 04:44 24.08476 112.87599 25744 ft 479 kts 341°
2026-04-27 04:45 24.11707 112.86578 26263 ft 482 kts 341°
2026-04-27 04:45 24.14904 112.85554 26787 ft 485 kts 340°
2026-04-27 04:45 24.18156 112.84500 27276 ft 489 kts 340°
2026-04-27 04:45 24.21429 112.83433 27773 ft 492 kts 340°
2026-04-27 04:46 24.24727 112.82352 28248 ft 496 kts 340°
2026-04-27 04:46 24.28033 112.81263 28711 ft 500 kts 340°
2026-04-27 04:46 24.31412 112.80146 29218 ft 503 kts 340°
2026-04-27 04:46 24.34762 112.79015 29882 ft 502 kts 338°
2026-04-27 04:47 24.37905 112.77523 30714 ft 493 kts 329°
2026-04-27 04:47 24.40788 112.75546 31557 ft 484 kts 320°
2026-04-27 04:47 24.43321 112.73167 32342 ft 475 kts 312°
2026-04-27 04:47 24.45462 112.70480 32963 ft 470 kts 304°
2026-04-27 04:48 24.47232 112.67476 33555 ft 466 kts 296°
2026-04-27 04:48 24.48576 112.64263 34049 ft 465 kts 289°
2026-04-27 04:48 24.50083 112.57409 34082 ft 461 kts 278°
2026-04-27 04:49 24.51026 112.50510 34084 ft 459 kts 277°
2026-04-27 04:49 24.51848 112.43528 34085 ft 459 kts 276°
2026-04-27 04:50 24.52590 112.36599 34086 ft 461 kts 275°
2026-04-27 04:50 24.53296 112.29652 34094 ft 459 kts 275°
2026-04-27 04:51 24.53981 112.22678 34091 ft 461 kts 275°
2026-04-27 04:51 24.54656 112.15688 34101 ft 460 kts 275°
2026-04-27 04:52 24.55318 112.08735 34109 ft 462 kts 275°
2026-04-27 04:52 24.55976 112.01762 34116 ft 461 kts 275°
2026-04-27 04:53 24.56637 111.94714 34111 ft 462 kts 274°
2026-04-27 04:53 24.57288 111.87726 34102 ft 464 kts 274°
2026-04-27 04:54 24.57941 111.80684 34092 ft 463 kts 274°
2026-04-27 04:54 24.58588 111.73660 34084 ft 465 kts 274°
2026-04-27 04:55 24.59233 111.66618 34074 ft 466 kts 274°
2026-04-27 04:55 24.59875 111.59576 34063 ft 465 kts 274°
2026-04-27 04:56 24.60518 111.52486 34052 ft 468 kts 274°
2026-04-27 04:56 24.61160 111.45367 34049 ft 470 kts 274°
2026-04-27 04:57 24.61798 111.38264 34051 ft 469 kts 274°
2026-04-27 04:57 24.62434 111.31136 34059 ft 470 kts 274°
2026-04-27 04:58 24.63058 111.24003 34064 ft 471 kts 274°
2026-04-27 04:58 24.63679 111.16811 34062 ft 472 kts 274°
2026-04-27 04:59 24.64294 111.09642 34067 ft 474 kts 274°
2026-04-27 04:59 24.64910 111.02429 34068 ft 475 kts 274°
2026-04-27 05:00 24.65525 110.95192 34057 ft 476 kts 274°
2026-04-27 05:00 24.66134 110.87992 34052 ft 475 kts 274°
2026-04-27 05:01 24.67419 110.80918 34042 ft 480 kts 288°
2026-04-27 05:01 24.70568 110.74400 34030 ft 485 kts 304°
2026-04-27 05:02 24.75222 110.68973 34028 ft 490 kts 314°
2026-04-27 05:03 24.82601 110.61229 34028 ft 491 kts 314°
2026-04-27 05:03 24.87532 110.56037 34032 ft 491 kts 314°
2026-04-27 05:04 24.92470 110.50828 34033 ft 491 kts 314°
2026-04-27 05:04 24.97401 110.45618 34018 ft 491 kts 314°
2026-04-27 05:05 25.02342 110.40390 34009 ft 492 kts 314°
2026-04-27 05:05 25.07287 110.35171 33997 ft 492 kts 314°
2026-04-27 05:06 25.12200 110.29979 33994 ft 491 kts 313°
2026-04-27 05:06 25.17146 110.24744 33997 ft 492 kts 313°
2026-04-27 05:07 25.22097 110.19509 33998 ft 491 kts 314°
2026-04-27 05:07 25.27050 110.14329 33999 ft 492 kts 314°
2026-04-27 05:08 25.32015 110.09131 33999 ft 491 kts 314°
2026-04-27 05:08 25.36964 110.03940 34009 ft 492 kts 314°
2026-04-27 05:09 25.41894 109.98762 34015 ft 490 kts 314°
2026-04-27 05:09 25.46849 109.93552 34034 ft 489 kts 314°
2026-04-27 05:10 25.51765 109.88376 34035 ft 489 kts 314°
2026-04-27 05:10 25.56687 109.83186 34026 ft 487 kts 314°
2026-04-27 05:11 25.61579 109.78023 34023 ft 487 kts 314°
2026-04-27 05:11 25.66468 109.72858 34022 ft 486 kts 314°
2026-04-27 05:12 25.71346 109.67696 34007 ft 486 kts 314°
2026-04-27 05:12 25.75933 109.62254 33986 ft 482 kts 303°
2026-04-27 05:13 25.78978 109.55698 33991 ft 476 kts 287°
2026-04-27 05:13 25.80888 109.48712 33995 ft 476 kts 285°
2026-04-27 05:14 25.82747 109.41695 33997 ft 474 kts 285°
2026-04-27 05:14 25.84596 109.34681 34007 ft 475 kts 284°
2026-04-27 05:15 25.86438 109.27666 34012 ft 475 kts 284°
2026-04-27 05:15 25.88271 109.20664 34010 ft 473 kts 284°
2026-04-27 05:16 25.90096 109.13676 34007 ft 472 kts 284°
2026-04-27 05:16 25.91919 109.06679 34006 ft 472 kts 285°
2026-04-27 05:17 25.93765 108.99670 34000 ft 472 kts 285°
2026-04-27 05:17 25.95621 108.92703 34002 ft 473 kts 285°
2026-04-27 05:18 25.97476 108.85721 34011 ft 471 kts 285°
2026-04-27 05:18 25.99314 108.78782 34013 ft 470 kts 285°
2026-04-27 05:19 26.01159 108.71803 34020 ft 473 kts 285°
2026-04-27 05:19 26.03022 108.64803 34018 ft 470 kts 285°
2026-04-27 05:20 26.04880 108.57811 34013 ft 471 kts 285°
2026-04-27 05:20 26.06716 108.50885 34009 ft 470 kts 285°
2026-04-27 05:21 26.08559 108.43918 34016 ft 472 kts 285°
2026-04-27 05:21 26.10806 108.37078 34028 ft 472 kts 294°
2026-04-27 05:22 26.13656 108.30492 34042 ft 473 kts 294°
2026-04-27 05:22 26.16501 108.23931 34064 ft 471 kts 294°
2026-04-27 05:23 26.19341 108.17363 34065 ft 472 kts 294°
2026-04-27 05:23 26.22168 108.10813 34058 ft 471 kts 294°
2026-04-27 05:24 26.25003 108.04232 34047 ft 471 kts 294°
2026-04-27 05:24 26.27820 107.97683 34033 ft 472 kts 294°
2026-04-27 05:25 26.30642 107.91111 34033 ft 470 kts 294°
2026-04-27 05:25 26.33462 107.84534 34032 ft 470 kts 294°
2026-04-27 05:26 26.36277 107.77958 34028 ft 471 kts 294°
2026-04-27 05:26 26.39094 107.71367 34025 ft 470 kts 294°
2026-04-27 05:27 26.41888 107.64819 34035 ft 469 kts 294°
2026-04-27 05:27 26.44681 107.58263 34037 ft 470 kts 295°
2026-04-27 05:28 26.47479 107.51685 34042 ft 472 kts 295°
2026-04-27 05:28 26.50274 107.45094 34061 ft 470 kts 295°
2026-04-27 05:29 26.53062 107.38505 34057 ft 470 kts 295°
2026-04-27 05:29 26.55856 107.31899 34059 ft 469 kts 294°
2026-04-27 05:30 26.58634 107.25338 34061 ft 469 kts 294°
2026-04-27 05:30 26.61405 107.18779 34062 ft 469 kts 295°
2026-04-27 05:31 26.64193 107.12180 34064 ft 470 kts 295°
2026-04-27 05:31 26.66993 107.05598 34060 ft 470 kts 295°
2026-04-27 05:32 26.69802 106.98981 34058 ft 470 kts 295°
2026-04-27 05:32 26.72581 106.92424 34063 ft 469 kts 295°
2026-04-27 05:33 26.75352 106.85877 34070 ft 468 kts 295°
2026-04-27 05:33 26.78373 106.79425 34082 ft 468 kts 304°
2026-04-27 05:34 26.82709 106.74065 34095 ft 466 kts 317°
2026-04-27 05:34 26.87590 106.69286 34089 ft 469 kts 318°
2026-04-27 05:35 26.92488 106.64495 34090 ft 466 kts 317°
2026-04-27 05:35 26.97368 106.59713 34094 ft 465 kts 317°
2026-04-27 05:36 27.02230 106.54941 34100 ft 464 kts 317°
2026-04-27 05:36 27.07080 106.50174 34101 ft 465 kts 317°
2026-04-27 05:37 27.11944 106.45387 34096 ft 464 kts 317°
2026-04-27 05:37 27.16789 106.40612 34098 ft 463 kts 317°
2026-04-27 05:38 27.21630 106.35848 34100 ft 463 kts 318°
2026-04-27 05:38 27.26485 106.31132 34115 ft 462 kts 317°
2026-04-27 05:39 27.31373 106.26376 34108 ft 463 kts 317°
2026-04-27 05:39 27.36222 106.21652 34107 ft 461 kts 317°
2026-04-27 05:40 27.41050 106.16939 34103 ft 459 kts 317°
2026-04-27 05:40 27.45884 106.12215 34100 ft 459 kts 317°
2026-04-27 05:41 27.50700 106.07503 34092 ft 460 kts 317°
2026-04-27 05:41 27.55532 106.02769 34080 ft 460 kts 317°
2026-04-27 05:42 27.60356 105.98038 34070 ft 461 kts 317°
2026-04-27 05:42 27.65170 105.93310 34066 ft 460 kts 317°
2026-04-27 05:43 27.69925 105.88472 34054 ft 460 kts 311°
2026-04-27 05:43 27.73593 105.82582 34042 ft 459 kts 296°
2026-04-27 05:44 27.75808 105.75883 34048 ft 460 kts 288°
2026-04-27 05:44 27.77745 105.68978 34053 ft 458 kts 288°
2026-04-27 05:45 27.79656 105.62170 34052 ft 459 kts 290°
2026-04-27 05:45 27.82120 105.55547 34066 ft 457 kts 294°
2026-04-27 05:46 27.84666 105.48991 34067 ft 458 kts 294°
2026-04-27 05:46 27.87215 105.42406 34075 ft 457 kts 294°
2026-04-27 05:47 27.89824 105.35893 34082 ft 459 kts 297°
2026-04-27 05:47 27.92723 105.29475 34097 ft 456 kts 297°
2026-04-27 05:48 27.95603 105.23080 34102 ft 458 kts 298°
2026-04-27 05:48 27.99309 105.17326 34107 ft 456 kts 314°
2026-04-27 05:49 28.04307 105.12903 34101 ft 457 kts 326°
2026-04-27 05:49 28.09755 105.09095 34090 ft 458 kts 326°
2026-04-27 05:50 28.15187 105.05302 34095 ft 458 kts 326°
2026-04-27 05:50 28.20607 105.01511 34093 ft 460 kts 326°
2026-04-27 05:51 28.26044 104.97703 34109 ft 459 kts 326°
2026-04-27 05:51 28.31475 104.93893 34091 ft 460 kts 326°
2026-04-27 05:52 28.36920 104.90070 34074 ft 460 kts 326°
2026-04-27 05:52 28.42392 104.86234 34052 ft 464 kts 326°
2026-04-27 05:53 28.47869 104.82409 34050 ft 461 kts 326°
2026-04-27 05:53 28.53343 104.78579 34045 ft 464 kts 326°
2026-04-27 05:54 28.58813 104.74748 34044 ft 462 kts 326°
2026-04-27 05:54 28.64309 104.70892 34052 ft 466 kts 326°
2026-04-27 05:55 28.69817 104.67023 34048 ft 465 kts 326°
2026-04-27 05:55 28.75334 104.63143 34048 ft 467 kts 326°
2026-04-27 05:56 28.80843 104.59264 34045 ft 464 kts 326°
2026-04-27 05:56 28.86336 104.55389 34045 ft 468 kts 326°
2026-04-27 05:57 28.91836 104.51474 34040 ft 468 kts 326°
2026-04-27 05:57 28.97385 104.47520 34043 ft 469 kts 326°
2026-04-27 05:58 29.02939 104.43556 34041 ft 469 kts 326°
2026-04-27 05:58 29.08446 104.39623 34037 ft 470 kts 326°
2026-04-27 05:59 29.14008 104.35645 34036 ft 468 kts 326°
2026-04-27 05:59 29.19531 104.31690 34049 ft 469 kts 325°
2026-04-27 06:00 29.28623 104.27592 34043 ft 477 kts 348°
2026-04-27 06:00 29.35300 104.27518 34047 ft 486 kts
2026-04-27 06:01 29.41998 104.28655 34048 ft 486 kts
2026-04-27 06:01 29.48668 104.29809 34052 ft 487 kts
2026-04-27 06:02 29.55366 104.30960 34049 ft 484 kts
2026-04-27 06:02 29.62044 104.32103 34056 ft 487 kts
2026-04-27 06:03 29.68738 104.33248 34057 ft 486 kts
2026-04-27 06:03 29.75421 104.34391 34053 ft 485 kts
2026-04-27 06:04 29.82126 104.35538 34057 ft 486 kts
2026-04-27 06:04 29.88796 104.36681 34054 ft 484 kts
2026-04-27 06:05 29.95469 104.37824 34048 ft 487 kts
2026-04-27 06:05 30.02170 104.38975 34051 ft 485 kts
2026-04-27 06:06 30.08867 104.40126 34052 ft 486 kts
2026-04-27 06:06 30.15531 104.41274 34057 ft 486 kts
2026-04-27 06:07 30.22243 104.42443 34058 ft 487 kts
2026-04-27 06:07 30.28929 104.43610 34056 ft 486 kts
2026-04-27 06:08 30.35642 104.44782 34056 ft 485 kts
2026-04-27 06:08 30.42332 104.45952 34044 ft 487 kts
2026-04-27 06:09 30.49017 104.47123 34039 ft 486 kts
2026-04-27 06:09 30.55721 104.48292 34026 ft 488 kts
2026-04-27 06:10 30.62394 104.48157 34027 ft 477 kts 346°
2026-04-27 06:10 30.68774 104.46061 34027 ft 474 kts 338°
2026-04-27 06:11 30.75027 104.43665 34027 ft 474 kts 338°
2026-04-27 06:11 30.81276 104.41266 34028 ft 472 kts 338°
2026-04-27 06:12 30.87647 104.39211 34031 ft 477 kts 348°
2026-04-27 06:12 30.94326 104.38792 34036 ft 483 kts 354°
2026-04-27 06:13 31.01036 104.38623 34036 ft 483 kts 354°
2026-04-27 06:13 31.07779 104.38450 34067 ft 485 kts 354°
2026-04-27 06:14 31.14516 104.38275 34065 ft 483 kts 354°
2026-04-27 06:14 31.21271 104.38097 34082 ft 483 kts 354°
2026-04-27 06:15 31.27986 104.37870 34097 ft 479 kts 353°
2026-04-27 06:15 31.34687 104.37463 34081 ft 482 kts 353°
2026-04-27 06:16 31.41393 104.37059 34107 ft 481 kts 353°
2026-04-27 06:16 31.48061 104.36663 34112 ft 481 kts 352°
2026-04-27 06:17 31.54793 104.36266 34146 ft 479 kts 352°
2026-04-27 06:17 31.61471 104.35873 34172 ft 482 kts 352°
2026-04-27 06:18 31.68142 104.35481 34211 ft 478 kts 352°
2026-04-27 06:18 31.74800 104.35090 34242 ft 478 kts 352°
2026-04-27 06:19 31.81458 104.34724 34256 ft 479 kts 352°
2026-04-27 06:19 31.88147 104.34386 34240 ft 477 kts 352°
2026-04-27 06:20 31.94808 104.34046 34257 ft 478 kts 352°
2026-04-27 06:20 32.01495 104.33704 34273 ft 478 kts 352°
2026-04-27 06:21 32.08180 104.33360 34277 ft 479 kts 352°
2026-04-27 06:21 32.14834 104.33019 34290 ft 479 kts 352°
2026-04-27 06:22 32.21497 104.32676 34326 ft 477 kts 352°
2026-04-27 06:22 32.28155 104.32331 34355 ft 479 kts 352°
2026-04-27 06:23 32.34779 104.31990 34348 ft 475 kts 352°
2026-04-27 06:23 32.41434 104.31643 34362 ft 479 kts 352°
2026-04-27 06:24 32.48130 104.31320 34355 ft 475 kts 352°
2026-04-27 06:24 32.54784 104.31001 34364 ft 478 kts 352°
2026-04-27 06:25 32.61448 104.30681 34412 ft 478 kts 352°
2026-04-27 06:25 32.68072 104.30364 34401 ft 475 kts 352°
2026-04-27 06:26 32.74745 104.30043 34420 ft 476 kts 352°
2026-04-27 06:26 32.81383 104.29723 34427 ft 479 kts 352°
2026-04-27 06:27 32.88029 104.29402 34460 ft 476 kts 352°
2026-04-27 06:27 32.94689 104.29079 34457 ft 477 kts 352°
2026-04-27 06:28 33.01356 104.28757 34467 ft 477 kts 352°
2026-04-27 06:28 33.08026 104.28433 34455 ft 476 kts 352°
2026-04-27 06:29 33.14701 104.28108 34459 ft 477 kts 352°
2026-04-27 06:29 33.21316 104.27786 34451 ft 478 kts 352°
2026-04-27 06:30 33.27906 104.26824 34435 ft 469 kts 339°
2026-04-27 06:30 33.33766 104.23813 34421 ft 456 kts 323°
2026-04-27 06:31 33.38600 104.18993 34463 ft 447 kts 308°
2026-04-27 06:31 33.42059 104.12914 34503 ft 441 kts 296°
2026-04-27 06:32 33.44980 104.06422 34481 ft 441 kts 296°
2026-04-27 06:32 33.47868 103.99963 34480 ft 441 kts 296°
2026-04-27 06:33 33.50774 103.93451 34488 ft 442 kts 295°
2026-04-27 06:33 33.53651 103.86989 34473 ft 441 kts 296°
2026-04-27 06:34 33.56523 103.80524 34494 ft 441 kts 295°
2026-04-27 06:34 33.59421 103.73988 34467 ft 443 kts 295°
2026-04-27 06:35 33.62302 103.67479 34456 ft 444 kts 295°
2026-04-27 06:35 33.65188 103.60947 34469 ft 443 kts 295°
2026-04-27 06:36 33.68059 103.54437 34464 ft 442 kts 295°
2026-04-27 06:36 33.70928 103.47918 34463 ft 442 kts 295°
2026-04-27 06:37 33.73803 103.41376 34459 ft 442 kts 295°
2026-04-27 06:37 33.76667 103.34844 34466 ft 443 kts 294°
2026-04-27 06:38 33.79543 103.28273 34481 ft 442 kts 294°
2026-04-27 06:38 33.82390 103.21755 34485 ft 443 kts 295°
2026-04-27 06:39 33.85241 103.15218 34495 ft 442 kts 295°
2026-04-27 06:39 33.88100 103.08648 34490 ft 442 kts 294°
2026-04-27 06:40 33.90947 103.02094 34491 ft 444 kts 295°
2026-04-27 06:40 33.93792 102.95532 34492 ft 443 kts 295°
2026-04-27 06:41 33.96644 102.88942 34508 ft 444 kts 295°
2026-04-27 06:41 33.99497 102.82338 34486 ft 444 kts 294°
2026-04-27 06:42 34.02322 102.75784 34503 ft 444 kts 294°
2026-04-27 06:42 34.05159 102.69192 34493 ft 443 kts 295°
2026-04-27 06:43 34.08001 102.62573 34501 ft 445 kts 294°
2026-04-27 06:43 34.10819 102.56001 34493 ft 441 kts 294°
2026-04-27 06:44 34.13650 102.49383 34484 ft 443 kts 294°
2026-04-27 06:44 34.16447 102.42831 34495 ft 443 kts 294°
2026-04-27 06:45 34.19253 102.36249 34496 ft 441 kts 294°
2026-04-27 06:45 34.22161 102.29677 34520 ft 443 kts 295°
2026-04-27 06:46 34.25063 102.23138 34533 ft 442 kts 294°
2026-04-27 06:46 34.27972 102.16564 34521 ft 446 kts 294°
2026-04-27 06:47 34.30868 102.10003 34528 ft 440 kts 294°
2026-04-27 06:47 34.33763 102.03429 34533 ft 442 kts 294°
2026-04-27 06:48 34.36646 101.96868 34550 ft 442 kts 294°
2026-04-27 06:48 34.39510 101.90337 34548 ft 440 kts 294°
2026-04-27 06:49 34.42392 101.83752 34537 ft 442 kts 294°
2026-04-27 06:49 34.45249 101.77211 34533 ft 443 kts 294°
2026-04-27 06:50 34.48143 101.70575 34532 ft 442 kts 294°
2026-04-27 06:50 34.51017 101.63971 34552 ft 443 kts 294°
2026-04-27 06:51 34.53876 101.57386 34560 ft 444 kts 294°
2026-04-27 06:51 34.56754 101.50748 34558 ft 446 kts 294°
2026-04-27 06:52 34.59633 101.44094 34567 ft 443 kts 294°
2026-04-27 06:52 34.62507 101.37437 34566 ft 445 kts 294°
2026-04-27 06:53 34.65382 101.30767 34568 ft 445 kts 294°
2026-04-27 06:53 34.68236 101.24130 34562 ft 447 kts 294°
2026-04-27 06:54 34.71089 101.17487 34582 ft 444 kts 293°
2026-04-27 06:54 34.73960 101.10783 34592 ft 445 kts 293°
2026-04-27 06:55 34.76817 101.04103 34597 ft 447 kts 293°
2026-04-27 06:55 34.79661 100.97440 34599 ft 444 kts 293°
2026-04-27 06:56 34.82510 100.90750 34589 ft 447 kts 293°
2026-04-27 06:56 34.85360 100.84047 34582 ft 444 kts 293°
2026-04-27 06:57 34.88198 100.77354 34585 ft 447 kts 293°
2026-04-27 06:57 34.91054 100.70610 34587 ft 447 kts 293°
2026-04-27 06:58 34.95330 100.60484 34590 ft 447 kts 293°
2026-04-27 06:59 34.98156 100.53776 34595 ft 448 kts 292°
2026-04-27 06:59 35.00995 100.47025 34601 ft 445 kts 293°
2026-04-27 07:00 35.03797 100.40345 34609 ft 446 kts 293°
2026-04-27 07:00 35.06621 100.33601 34653 ft 446 kts 292°
2026-04-27 07:01 35.09432 100.26877 34645 ft 445 kts 292°
2026-04-27 07:01 35.12252 100.20114 34627 ft 444 kts 292°
2026-04-27 07:02 35.15042 100.13409 34622 ft 446 kts 292°
2026-04-27 07:02 35.17865 100.06614 34613 ft 445 kts 292°
2026-04-27 07:03 35.20641 99.99918 34586 ft 443 kts 292°
2026-04-27 07:03 35.23414 99.93215 34600 ft 446 kts 292°
2026-04-27 07:04 35.26215 99.86431 34609 ft 445 kts 292°
2026-04-27 07:04 35.28992 99.79692 34627 ft 447 kts 292°
2026-04-27 07:05 35.31788 99.72890 34624 ft 447 kts 292°
2026-04-27 07:05 35.34573 99.66106 34624 ft 448 kts 292°
2026-04-27 07:06 35.37362 99.59293 34622 ft 446 kts 292°
2026-04-27 07:06 35.40167 99.52430 34596 ft 447 kts 292°
2026-04-27 07:07 35.42917 99.45687 34619 ft 445 kts 292°
2026-04-27 07:07 35.45708 99.38827 34621 ft 448 kts 292°
2026-04-27 07:08 35.48465 99.32044 34641 ft 443 kts 291°
2026-04-27 07:08 35.51204 99.25282 34659 ft 448 kts 291°
2026-04-27 07:09 35.53986 99.18405 34657 ft 445 kts 291°
2026-04-27 07:09 35.56737 99.11588 34680 ft 447 kts 291°
2026-04-27 07:10 35.59492 99.04749 34693 ft 444 kts 291°
2026-04-27 07:10 35.62241 98.97908 34700 ft 448 kts 291°
2026-04-27 07:11 35.64974 98.91097 34686 ft 443 kts 291°
2026-04-27 07:11 35.67239 98.85438 34681 ft 444 kts 291°
2026-04-27 07:12 35.70425 98.77459 34678 ft 446 kts 291°
2026-04-27 07:12 35.73145 98.70637 34671 ft 443 kts 291°
2026-04-27 07:13 35.75847 98.63842 34670 ft 445 kts 291°
2026-04-27 07:13 35.78556 98.57020 34664 ft 444 kts 291°
2026-04-27 07:14 35.81257 98.50201 34652 ft 441 kts 291°
2026-04-27 07:14 35.83955 98.43372 34636 ft 444 kts 291°
2026-04-27 07:15 35.86634 98.36583 34608 ft 443 kts 291°
2026-04-27 07:15 35.89336 98.29716 34594 ft 444 kts 290°
2026-04-27 07:16 35.92022 98.22875 34583 ft 443 kts 290°
2026-04-27 07:16 35.94696 98.16054 34574 ft 441 kts 290°
2026-04-27 07:17 35.97349 98.09268 34589 ft 444 kts 290°
2026-04-27 07:17 36.00011 98.02445 34602 ft 443 kts 290°
2026-04-27 07:18 36.02672 97.95616 34607 ft 439 kts 290°
2026-04-27 07:18 36.05297 97.88863 34619 ft 437 kts 290°
2026-04-27 07:19 36.07934 97.82060 34620 ft 439 kts 290°
2026-04-27 07:19 36.10568 97.75250 34625 ft 441 kts 290°
2026-04-27 07:20 36.13190 97.68465 34621 ft 437 kts 290°
2026-04-27 07:20 36.15842 97.61609 34619 ft 437 kts 291°
2026-04-27 07:21 36.18564 97.54888 34637 ft 440 kts 291°
2026-04-27 07:21 36.21309 97.48106 34646 ft 435 kts 291°
2026-04-27 07:22 36.24026 97.41364 34632 ft 439 kts 291°
2026-04-27 07:22 36.26747 97.34598 34641 ft 437 kts 290°
2026-04-27 07:23 36.29444 97.27875 34662 ft 435 kts 291°
2026-04-27 07:23 36.32136 97.21145 34640 ft 437 kts 290°
2026-04-27 07:24 36.34837 97.14381 34657 ft 436 kts 290°
2026-04-27 07:24 36.37526 97.07632 34644 ft 434 kts 290°
2026-04-27 07:25 36.40196 97.00917 34631 ft 433 kts 290°
2026-04-27 07:25 36.42870 96.94173 34635 ft 436 kts 290°
2026-04-27 07:26 36.45516 96.87492 34614 ft 431 kts 290°
2026-04-27 07:26 36.48180 96.80743 34633 ft 437 kts 290°
2026-04-27 07:27 36.50826 96.74038 34583 ft 427 kts 290°
2026-04-27 07:27 36.53453 96.67355 34585 ft 434 kts 290°
2026-04-27 07:28 36.56097 96.60620 34588 ft 431 kts 290°
2026-04-27 07:28 36.58746 96.53957 34597 ft 434 kts 290°
2026-04-27 07:29 36.61425 96.47279 34581 ft 429 kts 291°
2026-04-27 07:29 36.64088 96.40621 34553 ft 430 kts 290°
2026-04-27 07:30 36.66749 96.33948 34593 ft 430 kts 290°
2026-04-27 07:30 36.69396 96.27300 34583 ft 426 kts 290°
2026-04-27 07:31 36.72023 96.20685 34568 ft 425 kts 290°
2026-04-27 07:31 36.74652 96.14047 34532 ft 429 kts 290°
2026-04-27 07:32 36.77287 96.07383 34563 ft 431 kts 289°
2026-04-27 07:32 36.79929 96.00739 34553 ft 424 kts 289°
2026-04-27 07:33 36.82597 95.94039 34549 ft 431 kts 289°
2026-04-27 07:33 36.85210 95.87476 34561 ft 423 kts 289°
2026-04-27 07:34 36.87867 95.80769 34536 ft 428 kts 290°
2026-04-27 07:34 36.90462 95.74220 34516 ft 423 kts 289°
2026-04-27 07:35 36.93092 95.67557 34536 ft 428 kts 289°
2026-04-27 07:35 36.95697 95.60951 34507 ft 421 kts 289°
2026-04-27 07:36 36.98276 95.54390 34510 ft 427 kts 290°
2026-04-27 07:36 37.00912 95.47716 34495 ft 425 kts 290°
2026-04-27 07:37 37.03577 95.41191 34503 ft 420 kts 290°
2026-04-27 07:37 37.06255 95.34608 34502 ft 425 kts 289°
2026-04-27 07:38 37.08930 95.28018 34521 ft 423 kts 289°
2026-04-27 07:38 37.11589 95.21446 34503 ft 425 kts 290°
2026-04-27 07:39 37.14241 95.14884 34504 ft 422 kts 290°
2026-04-27 07:39 37.16921 95.08227 34499 ft 427 kts 290°
2026-04-27 07:40 37.19584 95.01607 34502 ft 425 kts 290°
2026-04-27 07:40 37.22234 94.95001 34497 ft 428 kts 290°
2026-04-27 07:41 37.24892 94.88363 34504 ft 426 kts 290°
2026-04-27 07:41 37.27570 94.81658 34512 ft 426 kts 290°
2026-04-27 07:42 37.30217 94.75017 34516 ft 429 kts 290°
2026-04-27 07:42 37.32883 94.68315 34518 ft 430 kts 291°
2026-04-27 07:43 37.35558 94.61578 34511 ft 429 kts 291°
2026-04-27 07:43 37.38229 94.54834 34512 ft 434 kts 291°
2026-04-27 07:44 37.40911 94.48053 34509 ft 431 kts 292°
2026-04-27 07:44 37.43590 94.41258 34515 ft 436 kts 292°
2026-04-27 07:45 37.46288 94.34403 34511 ft 434 kts 291°
2026-04-27 07:45 37.48949 94.27629 34520 ft 435 kts 291°
2026-04-27 07:46 37.51634 94.20773 34515 ft 436 kts 291°
2026-04-27 07:46 37.54301 94.13957 34521 ft 434 kts 291°
2026-04-27 07:47 37.56987 94.07069 34517 ft 438 kts 292°
2026-04-27 07:47 37.59666 94.00187 34511 ft 442 kts 292°
2026-04-27 07:48 37.62358 93.93256 34515 ft 441 kts 292°
2026-04-27 07:48 37.65043 93.86329 34516 ft 439 kts 292°
2026-04-27 07:49 37.67746 93.79340 34517 ft 443 kts 292°
2026-04-27 07:49 37.70422 93.72405 34518 ft 441 kts 293°
2026-04-27 07:50 37.73106 93.65431 34518 ft 439 kts 292°
2026-04-27 07:50 37.75795 93.58428 34510 ft 444 kts 293°
2026-04-27 07:51 37.78460 93.51474 34522 ft 443 kts 294°
2026-04-27 07:51 37.81161 93.44412 34510 ft 443 kts 294°
2026-04-27 07:52 37.83823 93.37433 34520 ft 444 kts 294°
2026-04-27 07:52 37.86500 93.30399 34532 ft 444 kts 293°
2026-04-27 07:53 37.89180 93.23340 34532 ft 445 kts 293°
2026-04-27 07:53 37.91861 93.16266 34531 ft 447 kts 294°
2026-04-27 07:54 37.94549 93.09152 34537 ft 449 kts 294°
2026-04-27 07:54 37.97238 93.02022 34535 ft 447 kts 294°
2026-04-27 07:55 37.99925 92.94881 34540 ft 450 kts 294°
2026-04-27 07:55 38.02621 92.87698 34534 ft 448 kts 294°
2026-04-27 07:56 38.05302 92.80539 34538 ft 451 kts 294°
2026-04-27 07:56 38.07973 92.73389 34551 ft 449 kts 294°
2026-04-27 07:57 38.10626 92.66270 34538 ft 449 kts 294°
2026-04-27 07:57 38.13468 92.59217 34547 ft 451 kts 302°
2026-04-27 07:58 38.17606 92.53214 34540 ft 454 kts 318°
2026-04-27 07:58 38.22973 92.48920 34560 ft 459 kts 334°
2026-04-27 07:59 38.29128 92.46742 34560 ft 465 kts 349°
2026-04-27 07:59 38.38760 92.44997 34561 ft 466 kts 348°
2026-04-27 08:00 38.45171 92.43717 34575 ft 463 kts 348°
2026-04-27 08:00 38.51517 92.42398 34589 ft 463 kts 348°
2026-04-27 08:01 38.57873 92.41046 34590 ft 462 kts 348°
2026-04-27 08:01 38.64252 92.39671 34596 ft 462 kts 348°
2026-04-27 08:02 38.70577 92.38296 34603 ft 461 kts 348°
2026-04-27 08:02 38.76889 92.36918 34599 ft 462 kts 348°
2026-04-27 08:03 38.83251 92.35525 34605 ft 461 kts 348°
2026-04-27 08:03 38.89554 92.34141 34601 ft 460 kts 347°
2026-04-27 08:04 38.95883 92.32748 34613 ft 459 kts 347°
2026-04-27 08:04 39.02160 92.31364 34596 ft 458 kts 347°
2026-04-27 08:05 39.08439 92.29977 34618 ft 458 kts 347°
2026-04-27 08:05 39.14740 92.28814 34588 ft 458 kts 349°
2026-04-27 08:06 39.21054 92.27710 34566 ft 457 kts 349°
2026-04-27 08:06 39.27354 92.26596 34561 ft 456 kts 349°
2026-04-27 08:07 39.33629 92.25479 34537 ft 454 kts 349°
2026-04-27 08:07 39.39872 92.24363 34502 ft 453 kts 349°
2026-04-27 08:08 39.46075 92.23251 34480 ft 453 kts 349°
2026-04-27 08:08 39.52336 92.22124 34478 ft 452 kts 349°
2026-04-27 08:09 39.58530 92.21008 34363 ft 450 kts 349°
2026-04-27 08:09 39.64636 92.19906 34419 ft 453 kts 349°
2026-04-27 08:10 39.70748 92.18800 34345 ft 449 kts 349°
2026-04-27 08:10 39.76934 92.17687 34335 ft 449 kts 350°
2026-04-27 08:11 39.83112 92.16641 34322 ft 446 kts 350°
2026-04-27 08:11 39.89281 92.15595 34274 ft 446 kts 350°
2026-04-27 08:12 39.95391 92.14555 34257 ft 445 kts 350°
2026-04-27 08:12 40.01511 92.13510 34259 ft 445 kts 350°
2026-04-27 08:13 40.07661 92.12458 34229 ft 443 kts 350°
2026-04-27 08:13 40.13778 92.11409 34241 ft 442 kts 350°
2026-04-27 08:14 40.19855 92.10365 34237 ft 442 kts 350°
2026-04-27 08:14 40.25923 92.09321 34228 ft 441 kts 350°
2026-04-27 08:15 40.32008 92.08272 34224 ft 440 kts 350°
2026-04-27 08:15 40.38036 92.07230 34236 ft 437 kts 350°
2026-04-27 08:16 40.44115 92.06178 34245 ft 438 kts 350°
2026-04-27 08:16 40.50131 92.05135 34267 ft 438 kts 350°
2026-04-27 08:17 40.56146 92.04091 34256 ft 434 kts 350°
2026-04-27 08:17 40.62128 92.03049 34269 ft 438 kts 350°
2026-04-27 08:18 40.68165 92.01997 34274 ft 433 kts 350°
2026-04-27 08:18 40.74107 92.00960 34264 ft 433 kts 350°
2026-04-27 08:19 40.80102 91.99910 34258 ft 434 kts 350°
2026-04-27 08:19 40.86067 91.98865 34252 ft 432 kts 350°
2026-04-27 08:20 40.92025 91.97819 34244 ft 431 kts 350°
2026-04-27 08:20 40.97971 91.96773 34236 ft 428 kts 350°
2026-04-27 08:21 41.03870 91.95733 34232 ft 429 kts 350°
2026-04-27 08:21 41.09804 91.94685 34230 ft 429 kts 350°
2026-04-27 08:22 41.15749 91.93634 34240 ft 428 kts 350°
2026-04-27 08:22 41.21680 91.92583 34240 ft 427 kts 350°
2026-04-27 08:23 41.27552 91.91541 34236 ft 427 kts 351°
2026-04-27 08:23 41.33429 91.90495 34239 ft 428 kts 351°
2026-04-27 08:24 41.39326 91.89445 34241 ft 428 kts 350°
2026-04-27 08:24 41.45233 91.88390 34248 ft 427 kts 350°
2026-04-27 08:25 41.51080 91.87344 34254 ft 427 kts 350°
2026-04-27 08:25 41.57016 91.86281 34254 ft 426 kts 351°
2026-04-27 08:26 41.62899 91.85226 34258 ft 425 kts 351°
2026-04-27 08:26 41.68745 91.84197 34261 ft 426 kts 351°
2026-04-27 08:27 41.74665 91.83160 34262 ft 426 kts 351°
2026-04-27 08:27 41.80501 91.82136 34263 ft 426 kts 351°
2026-04-27 08:28 41.86390 91.81099 34258 ft 425 kts 351°
2026-04-27 08:28 41.92250 91.80065 34261 ft 426 kts 351°
2026-04-27 08:29 41.98118 91.79028 34257 ft 425 kts 351°
2026-04-27 08:29 42.03952 91.77994 34253 ft 425 kts 351°
2026-04-27 08:30 42.09773 91.76962 34251 ft 425 kts 351°
2026-04-27 08:30 42.15648 91.75910 34257 ft 425 kts 351°
2026-04-27 08:31 42.21487 91.74574 34247 ft 424 kts 343°
2026-04-27 08:31 42.26872 91.71431 34241 ft 424 kts 330°
2026-04-27 08:32 42.31955 91.67291 34231 ft 424 kts 330°
2026-04-27 08:32 42.37003 91.63152 34224 ft 425 kts 330°
2026-04-27 08:33 42.42080 91.58983 34212 ft 425 kts 330°
2026-04-27 08:33 42.47152 91.54810 34203 ft 426 kts 330°
2026-04-27 08:34 42.52205 91.50645 34193 ft 426 kts 330°
2026-04-27 08:34 42.57267 91.46465 34184 ft 426 kts 330°
2026-04-27 08:35 42.62310 91.42293 34172 ft 427 kts 330°
2026-04-27 08:35 42.67356 91.38110 34156 ft 426 kts 330°
2026-04-27 08:36 42.72416 91.33907 34140 ft 426 kts 329°
2026-04-27 08:36 42.77472 91.29700 34125 ft 427 kts 329°
2026-04-27 08:37 42.82540 91.25474 34122 ft 427 kts 329°
2026-04-27 08:37 42.87579 91.21127 34130 ft 429 kts 324°
2026-04-27 08:38 42.91965 91.15641 34132 ft 431 kts 317°
2026-04-27 08:38 42.96221 91.09869 34132 ft 430 kts 317°
2026-04-27 08:39 43.00451 91.04121 34139 ft 431 kts 317°
2026-04-27 08:39 43.04700 90.98332 34152 ft 430 kts 317°
2026-04-27 08:40 43.08933 90.92554 34162 ft 430 kts 317°
2026-04-27 08:40 43.13162 90.86769 34190 ft 432 kts 317°
2026-04-27 08:41 43.17398 90.80962 34211 ft 432 kts 317°
2026-04-27 08:41 43.21656 90.75114 34216 ft 434 kts 317°
2026-04-27 08:42 43.25545 90.68687 34253 ft 438 kts 307°
2026-04-27 08:42 43.28876 90.61732 34283 ft 437 kts 307°
2026-04-27 08:43 43.32233 90.54690 34296 ft 438 kts 307°
2026-04-27 08:43 43.35561 90.47692 34297 ft 440 kts 306°
2026-04-27 08:44 43.38905 90.40643 34296 ft 441 kts 306°
2026-04-27 08:44 43.42244 90.33587 34300 ft 440 kts 306°
2026-04-27 08:45 43.45600 90.26480 34299 ft 442 kts 306°
2026-04-27 08:45 43.48913 90.19443 34292 ft 441 kts 306°
2026-04-27 08:46 43.52244 90.12354 34298 ft 440 kts 305°
2026-04-27 08:46 43.55575 90.05247 34310 ft 441 kts 305°
2026-04-27 08:47 43.58904 89.98128 34312 ft 440 kts 305°
2026-04-27 08:47 43.62219 89.91020 34306 ft 440 kts 305°
2026-04-27 08:48 43.65512 89.83942 34302 ft 441 kts 305°
2026-04-27 08:48 43.68832 89.76791 34304 ft 442 kts 305°
2026-04-27 08:49 43.72131 89.69664 34098 ft 439 kts 305°
2026-04-27 08:49 43.73768 89.66125 33637 ft 443 kts 304°
2026-04-27 08:49 43.75434 89.62515 33179 ft 447 kts 304°
2026-04-27 08:50 43.77124 89.58848 32803 ft 450 kts 304°
2026-04-27 08:50 43.78578 89.55070 32524 ft 452 kts 296°
2026-04-27 08:50 43.79633 89.50988 32261 ft 455 kts 288°
2026-04-27 08:50 43.80255 89.46651 32002 ft 459 kts 280°
2026-04-27 08:51 43.80438 89.42261 31712 ft 462 kts 275°
2026-04-27 08:51 43.80478 89.37829 31426 ft 464 kts 274°
2026-04-27 08:51 43.80506 89.33389 31178 ft 464 kts 273°
2026-04-27 08:51 43.80530 89.28896 30987 ft 464 kts 273°
2026-04-27 08:52 43.80551 89.24479 30839 ft 463 kts 273°
2026-04-27 08:52 43.80570 89.20016 30706 ft 462 kts 273°
2026-04-27 08:52 43.80586 89.15596 30581 ft 460 kts 273°
2026-04-27 08:52 43.80600 89.11169 30441 ft 459 kts 273°
2026-04-27 08:53 43.80613 89.06792 30269 ft 459 kts 273°
2026-04-27 08:53 43.80623 89.02373 30128 ft 459 kts 273°
2026-04-27 08:53 43.80631 88.98025 29939 ft 454 kts 273°
2026-04-27 08:53 43.80637 88.93659 29489 ft 447 kts 272°
2026-04-27 08:54 43.80642 88.89411 28966 ft 442 kts 272°
2026-04-27 08:54 43.80645 88.85213 28442 ft 437 kts 273°
2026-04-27 08:54 43.80647 88.81037 27927 ft 432 kts 272°
2026-04-27 08:54 43.80647 88.76961 27406 ft 428 kts 273°
2026-04-27 08:55 43.80645 88.72864 26878 ft 423 kts 272°
2026-04-27 08:55 43.80644 88.68787 26354 ft 430 kts 272°
2026-04-27 08:55 43.80640 88.64623 25792 ft 436 kts 272°
2026-04-27 08:55 43.80634 88.60455 25221 ft 433 kts 272°
2026-04-27 08:56 43.80627 88.56332 24658 ft 428 kts 272°
2026-04-27 08:56 43.80618 88.52227 24083 ft 423 kts 272°
2026-04-27 08:56 43.80607 88.48192 23527 ft 418 kts 272°
2026-04-27 08:56 43.80600 88.45557 23163 ft 415 kts 272°
2026-04-27 08:57 43.80570 88.36365 21879 ft 405 kts 272°
2026-04-27 08:57 43.80555 88.32509 21334 ft 401 kts 271°
2026-04-27 08:57 43.80539 88.28693 20783 ft 398 kts 271°
2026-04-27 08:58 43.80521 88.24897 20240 ft 394 kts 271°
2026-04-27 08:58 43.80503 88.21143 19683 ft 391 kts 271°
2026-04-27 08:58 43.80484 88.17409 19117 ft 389 kts 271°
2026-04-27 08:58 43.80464 88.13694 18560 ft 386 kts 271°
2026-04-27 08:59 43.80442 88.10007 18007 ft 383 kts 271°
2026-04-27 08:59 43.80420 88.06362 17450 ft 380 kts 271°
2026-04-27 08:59 43.80397 88.02741 16896 ft 377 kts 271°
2026-04-27 08:59 43.80372 87.99133 16338 ft 375 kts 271°
2026-04-27 09:00 43.80347 87.95546 15766 ft 372 kts 271°
2026-04-27 09:00 43.80321 87.91991 15193 ft 369 kts 271°
2026-04-27 09:00 43.80293 87.88472 14630 ft 366 kts 271°
2026-04-27 09:00 43.80265 87.84981 14060 ft 364 kts 271°
2026-04-27 09:01 43.80236 87.81512 13506 ft 361 kts 271°
2026-04-27 09:01 43.80206 87.78033 12965 ft 358 kts 271°
2026-04-27 09:01 43.80176 87.74618 12399 ft 355 kts 271°
2026-04-27 09:01 43.80145 87.71229 11861 ft 353 kts 271°
2026-04-27 09:02 43.80113 87.67890 11342 ft 351 kts 271°
2026-04-27 09:02 43.80080 87.64521 10908 ft 346 kts 271°
2026-04-27 09:02 43.80047 87.61256 10799 ft 331 kts 271°
2026-04-27 09:02 43.80014 87.58180 10733 ft 317 kts 271°
2026-04-27 09:03 43.79982 87.55173 10599 ft 305 kts 271°
2026-04-27 09:03 43.79961 87.53262 10501 ft 299 kts 271°
2026-04-27 09:03 43.79920 87.49494 10318 ft 285 kts 271°
2026-04-27 09:03 43.79846 87.46832 10186 ft 277 kts 264°
2026-04-27 09:04 43.79426 87.44267 9982 ft 273 kts 257°
2026-04-27 09:04 43.78891 87.41737 9615 ft 275 kts 256°
2026-04-27 09:04 43.78341 87.39201 9247 ft 276 kts 256°
2026-04-27 09:04 43.77795 87.36676 8922 ft 275 kts 256°
2026-04-27 09:05 43.77249 87.34152 8608 ft 275 kts 255°
2026-04-27 09:05 43.76706 87.31612 8275 ft 276 kts 255°
2026-04-27 09:05 43.76163 87.29071 7932 ft 276 kts 255°
2026-04-27 09:05 43.75761 87.26506 7602 ft 273 kts 271°
2026-04-27 09:06 43.76130 87.24026 7308 ft 266 kts 297°
2026-04-27 09:06 43.77261 87.22016 6967 ft 267 kts 322°
2026-04-27 09:06 43.78851 87.20756 6629 ft 265 kts 340°
2026-04-27 09:06 43.80625 87.20449 6328 ft 250 kts
2026-04-27 09:07 43.82111 87.21350 6232 ft 217 kts 40°
2026-04-27 09:07 43.83155 87.22701 6195 ft 199 kts 43°
2026-04-27 09:07 43.84147 87.24010 5918 ft 195 kts 43°
2026-04-27 09:07 43.85080 87.25243 5622 ft 179 kts 43°
2026-04-27 09:08 43.85954 87.26398 5350 ft 170 kts 44°
2026-04-27 09:08 43.86802 87.27518 5080 ft 167 kts 44°
2026-04-27 09:08 43.87606 87.28580 4814 ft 152 kts 43°
2026-04-27 09:08 43.88343 87.29555 4584 ft 145 kts 43°
2026-04-27 09:09 43.88879 87.30696 4353 ft 144 kts 73°
2026-04-27 09:09 43.89122 87.32050 4130 ft 143 kts 73°
2026-04-27 09:09 43.89339 87.33392 3892 ft 143 kts 85°
2026-04-27 09:09 43.89220 87.34764 3610 ft 148 kts 100°
2026-04-27 09:10 43.89026 87.36101 3510 ft 144 kts 94°
2026-04-27 09:10 43.88947 87.37506 3316 ft 147 kts 90°
2026-04-27 09:10 43.88989 87.38903 3059 ft 145 kts 81°
2026-04-27 09:10 43.89198 87.40228 2764 ft 142 kts 72°
2026-04-27 09:11 43.89423 87.41536 2610 ft 138 kts 70°
2026-04-27 09:11 43.89731 87.42798 2529 ft 140 kts 70°
2026-04-27 09:11 43.89997 87.44125 2347 ft 142 kts 71°
2026-04-27 09:11 43.90292 87.45425 2198 ft 143 kts 71°
2026-04-27 09:12 43.90563 87.46738 2165 ft 142 kts 72°
2026-04-27 09:12 43.90794 87.47752 2151 ft 41 kts 75°
2026-04-27 09:12 43.90860 87.48097 2151 ft 34 kts 73°
2026-04-27 09:12 43.90914 87.48395 2151 ft 28 kts 91°
2026-04-27 09:13 43.90859 87.48636 2151 ft 23 kts 134°
2026-04-27 09:13 43.90718 87.48698 2152 ft 20 kts 168°
2026-04-27 09:13 43.90689 87.48707 2152 ft 0 kts 163°